Mountain Home, ID

4:39 PM MDT on April 29, 2017 (GMT -0600)
Mountain Home Air Force Base

Weather History for KMUO - April, 2014

Change the Weather History Date:

Monday, April 7, 2014

  Actual Average Record
Temperature  
Mean Temperature 52 °F 47 °F  
Max Temperature 69 °F 60 °F 83 °F (1970)
Min Temperature 34 °F 34 °F 15 °F (1929)
Degree Days  
Heating Degree Days 13 18  
Month to date heating degree days 129 129  
Cooling Degree Days 0 0  
Month to date cooling degree days 0 0  
Growing Degree Days 2 (Base 50)    
Moisture  
Dew Point 35 °F    
Average Humidity 58    
Maximum Humidity 100    
Minimum Humidity 24    
Precipitation  
Precipitation 0.00 in 0.03 in 0.34 in (1976)
Month to date precipitation 0.10 0.25  
Sea Level Pressure  
Sea Level Pressure 30.27 in    
Wind  
Wind Speed 7 mph (NW)    
Max Wind Speed 13 mph    
Max Gust Speed -    
Visibility 10 miles    
Events      
T = Trace of Precipitation, MM = Missing Value Source: NWS Daily Summary

Daily Weather History Graph

Daily Weather History Graph

Search for Another Location

Airport or City:

Trip Planner

Search our weather history database for the weather conditions in past years. The results will help you decide how hot, cold, wet, or windy it might be!

Date:

Astronomy

Apr. 07, 2014 Rise Set
Actual Time 7:14 AM MDT 8:16 PM MDT
Civil Twilight 6:45 AM MDT 8:45 PM MDT
Nautical Twilight 6:11 AM MDT 9:20 PM MDT
Astronomical Twilight 5:35 AM MDT 9:57 PM MDT
Moon 1:11 PM MDT (4/7) 3:01 AM MDT (4/7)
Length of Visible Light 14h 00m
Length of Day
13h 01m
First Quarter, 54% of the Moon is Illuminated
Apr 7
First Quarter
Apr 15
Full
Apr 22
Last Quarter
Apr 29
New
May 6
First Quarter

Hourly Weather History & Observations

Time (MDT) Temp. Windchill Dew Point Humidity Pressure Visibility Wind Dir Wind Speed Gust Speed Precip Events Conditions
12:58 AM 45.0 °F 41.8 °F 36.3 °F 72% 30.25 in 10.0 mi NW 5.8 mph - N/A   Clear
1:58 AM 43.5 °F 40.9 °F 37.2 °F 78% 30.26 in 10.0 mi NW 4.6 mph - N/A   Clear
2:58 AM 40.5 °F 36.5 °F 38.3 °F 92% 30.27 in 10.0 mi NNW 5.8 mph - N/A   Clear
3:58 AM 40.8 °F 36.2 °F 38.3 °F 91% 30.29 in 10.0 mi North 6.9 mph - N/A   Clear
4:58 AM 39.0 °F 34.8 °F 38.7 °F 99% 30.29 in 10.0 mi NNW 5.8 mph - N/A   Clear
5:58 AM 36.9 °F 30.7 °F 36.9 °F 100% 30.31 in 10.0 mi WNW 8.1 mph - N/A   Clear
6:58 AM 36.5 °F 30.3 °F 36.5 °F 100% 30.33 in 10.0 mi WNW 8.1 mph - N/A   Clear
7:58 AM 36.5 °F 31.0 °F 36.5 °F 100% 30.34 in 10.0 mi WNW 6.9 mph - N/A   Clear
8:58 AM 44.8 °F 39.9 °F 44.4 °F 99% 30.35 in 10.0 mi WNW 9.2 mph - N/A   Clear
9:58 AM 52.7 °F - 39.2 °F 60% 30.34 in 10.0 mi WNW 12.7 mph - N/A   Clear
10:58 AM 57.0 °F - 35.6 °F 45% 30.34 in 10.0 mi NW 11.5 mph - N/A   Clear
11:58 AM 59.9 °F - 34.9 °F 39% 30.34 in 10.0 mi WNW 10.4 mph - N/A   Clear
12:58 PM 62.4 °F - 32.9 °F 33% 30.32 in 10.0 mi NW 10.4 mph - N/A   Clear
1:58 PM 63.9 °F - 32.7 °F 31% 30.31 in 10.0 mi NNW 11.5 mph - N/A   Clear
2:58 PM 65.3 °F - 32.0 °F 29% 30.29 in 10.0 mi West 8.1 mph - N/A   Clear
3:58 PM 68.2 °F - 30.0 °F 24% 30.25 in 10.0 mi WNW 9.2 mph - N/A   Clear
4:58 PM 68.7 °F - 30.0 °F 24% 30.22 in 10.0 mi North 9.2 mph - N/A   Clear
5:58 PM 69.3 °F - 32.4 °F 26% 30.22 in 10.0 mi NNW 4.6 mph - N/A   Clear
6:58 PM 68.0 °F - 33.3 °F 28% 30.22 in 10.0 mi NW 9.2 mph - N/A   Clear
7:58 PM 66.2 °F - 32.5 °F 29% 30.21 in 10.0 mi NNW 8.1 mph - N/A   Clear
8:58 PM 61.7 °F - 33.6 °F 35% 30.20 in 10.0 mi NNE 3.5 mph - N/A   Clear
9:58 PM 57.7 °F - 33.3 °F 40% 30.20 in 10.0 mi NNW 5.8 mph - N/A   Clear
10:58 PM 55.9 °F - 34.5 °F 45% 30.19 in 10.0 mi North 3.5 mph - N/A   Clear
11:58 PM 47.5 °F - 35.1 °F 62% 30.22 in 10.0 mi SE 9.2 mph - N/A   Clear